Terug naar catalogus

SHIJIAN 6 01B

SJ-6 01B

ActiefWetenschapSSO
NORAD 28414·PAYLOAD·🇨🇳 China

Gelanceerd Sep 8, 2004 vanaf Taiyuan Satellite Launch Center

Loading…

Volgende Passages (komende 24 uur)

TLE

VersSource: Space-Track

Epoch: Sep 14, 2026, 23:29 UTC

1 28414U 04035B   26257.97907356  .00001538  00000-0  10729-3 0  9998
2 28414  97.6047 274.7267 0004419 173.1022 187.0267 15.06860499200341

Volg SHIJIAN 6 01B in realtime met AllMySat

Download on the App Store